Weather History for Billings, MT

Change the Weather History Date:

Thursday, February 14, 2013

  Actual Average Record
Temperature  
Mean Temperature 29 °F 30 °F  
Max Temperature 32 °F 40 °F 59 °F (1957)
Min Temperature 25 °F 20 °F -28 °F (1936)
Degree Days  
Heating Degree Days 36 35  
Month to date heating degree days 426 503  
Since 1 July heating degree days 4105 4499  
Cooling Degree Days 0 0  
Month to date cooling degree days 0 0  
Year to date cooling degree days 0 0  
Moisture  
Dew Point 20 °F    
Average Humidity 73    
Maximum Humidity 100    
Minimum Humidity 45    
Precipitation  
Precipitation 0.05 in 0.02 in 0.30 in (1984)
Month to date precipitation 0.18 0.22  
Year to date precipitation 0.77 0.70  
Snow  
Snow 0.70 in 0.20 in 2.40 in (1984)
Month to date snowfall 2.6 2.8  
Since 1 July snowfall 30.3 31.1  
Snow Depth 1.00 in    
Sea Level Pressure  
Sea Level Pressure 30.31 in    
Wind  
Wind Speed 14 mph (West)    
Max Wind Speed 25 mph    
Max Gust Speed 32 mph    
Visibility 7 miles    
Events Fog , Snow    
T = Trace of Precipitation, MM = Missing Value Source: NWS Daily Summary

Daily Weather History Graph

Daily Weather History Graph

Search for Another Location

Airport:

Trip Planner

Search our weather history database for the weather conditions in past years. The results will help you decide how hot, cold, wet, or windy it might be!

Date:

Astronomy

Feb. 14, 2013 Rise Set
Actual Time 7:17 AM MST 5:39 PM MST
Civil Twilight 6:46 AM MST 6:10 PM MST
Nautical Twilight 6:11 AM MST 6:45 PM MST
Astronomical Twilight 5:37 AM MST 7:19 PM MST
Moon 9:03 AM MST (2/14) 11:05 PM MST (2/14)
Length of Visible Light 11h 23m
Length of Day
10h 22m
Waxing Crescent, 22% of the Moon is Illuminated
Feb 14
Waxing Crescent
Feb 17
First Quarter
Feb 25
Full
Mar 4
Last Quarter
Mar 11
New

Hourly Weather History & Observations

Time (MST) Temp. Windchill Dew Point Humidity Pressure Visibility Wind Dir Wind Speed Gust Speed Precip Events Conditions
12:02 AM 27.0 °F 16.7 °F 25.0 °F 92% 30.11 in 1.0 mi NNE 11.5 mph - 0.00 in Snow Light Snow
12:13 AM 27.0 °F 17.3 °F 25.0 °F 92% 30.11 in 4.0 mi NNE 10.4 mph - 0.01 in Snow Light Snow
12:21 AM 27.0 °F 18.0 °F 25.0 °F 92% 30.12 in 7.0 mi NNE 9.2 mph - 0.01 in Snow Light Snow
12:36 AM 28.0 °F 15.7 °F 21.9 °F 78% 30.12 in 9.0 mi North 17.3 mph 23.0 mph 0.01 in Snow Light Snow
12:53 AM 28.0 °F 16.1 °F 19.9 °F 72% 30.22 in 10.0 mi North 16.1 mph - 0.01 in   Overcast
1:53 AM 27.0 °F 13.2 °F 19.0 °F 72% 30.23 in 8.0 mi NNW 20.7 mph - 0.00 in Snow Light Snow
2:53 AM 28.0 °F 14.3 °F 17.1 °F 63% 30.24 in 10.0 mi NNW 21.9 mph 29.9 mph 0.00 in   Overcast
3:53 AM 26.1 °F 14.0 °F 18.0 °F 71% 30.29 in 10.0 mi West 15.0 mph - N/A   Overcast
4:53 AM 26.6 °F 14.3 °F 17.6 °F 69% 30.20 in 10.0 mi WNW 16.1 mph - N/A   Overcast
5:53 AM 26.1 °F 16.2 °F 17.1 °F 69% 30.33 in 10.0 mi West 10.4 mph - N/A   Overcast
6:53 AM 26.1 °F 14.5 °F 16.0 °F 66% 30.37 in 10.0 mi WNW 13.8 mph - N/A   Overcast
7:53 AM 26.1 °F 13.1 °F 15.1 °F 63% 30.39 in 10.0 mi WNW 17.3 mph - N/A   Overcast
8:53 AM 26.6 °F 16.2 °F 14.0 °F 59% 30.30 in 10.0 mi NW 11.5 mph - N/A   Mostly Cloudy
9:53 AM 28.0 °F 16.1 °F 12.9 °F 53% 30.40 in 10.0 mi WNW 16.1 mph - N/A   Mostly Cloudy
10:53 AM 30.0 °F 20.5 °F 14.0 °F 51% 30.40 in 10.0 mi WNW 11.5 mph - N/A   Mostly Cloudy
11:53 AM 30.9 °F 21.7 °F 15.1 °F 52% 30.41 in 10.0 mi West 11.5 mph - N/A   Mostly Cloudy
12:53 PM 30.9 °F 21.2 °F 15.1 °F 52% 30.40 in 10.0 mi West 12.7 mph - N/A   Mostly Cloudy
1:53 PM 32.0 °F 23.6 °F 15.1 °F 50% 30.38 in 10.0 mi West 10.4 mph - N/A   Overcast
2:53 PM 32.0 °F 24.2 °F 14.0 °F 48% 30.37 in 10.0 mi WSW 9.2 mph - N/A   Overcast
3:53 PM 32.0 °F 23.6 °F 19.0 °F 59% 30.38 in 10.0 mi WSW 10.4 mph - N/A   Mostly Cloudy
4:53 PM 28.0 °F 17.5 °F 21.9 °F 78% 30.38 in 10.0 mi SW 12.7 mph - N/A   Overcast
5:53 PM 27.0 °F 14.7 °F 21.0 °F 78% 30.38 in 10.0 mi WSW 16.1 mph - N/A   Overcast
6:35 PM 27.0 °F 16.7 °F 21.0 °F 78% 30.27 in 2.5 mi WSW 11.5 mph - 0.00 in Snow Light Snow
6:53 PM 26.1 °F 15.0 °F 21.9 °F 84% 30.40 in 2.5 mi WSW 12.7 mph - 0.00 in Snow Light Snow
7:05 PM 26.1 °F 15.0 °F 21.9 °F 84% 30.27 in 5.0 mi WSW 12.7 mph - 0.00 in Snow Light Snow
7:13 PM 26.1 °F 14.5 °F 21.9 °F 84% 30.27 in 5.0 mi WSW 13.8 mph - 0.00 in Snow Light Snow
7:21 PM 26.1 °F 15.0 °F 23.0 °F 88% 30.27 in 2.0 mi WSW 12.7 mph - 0.00 in Snow Light Snow
7:23 PM 26.1 °F 15.0 °F 23.0 °F 88% 30.28 in 1.5 mi West 12.7 mph - 0.00 in Snow Light Snow
7:44 PM 26.1 °F 15.6 °F 23.0 °F 88% 30.28 in 1.2 mi WSW 11.5 mph - 0.01 in Snow Light Snow
7:53 PM 26.1 °F 15.0 °F 23.0 °F 88% 30.40 in 2.0 mi WSW 12.7 mph - 0.01 in Snow Light Snow
8:01 PM 26.6 °F 17.5 °F 23.0 °F 86% 30.27 in 2.0 mi WSW 9.2 mph - N/A Snow Light Snow
8:12 PM 26.1 °F 15.6 °F 23.0 °F 88% 30.27 in 0.8 mi WSW 11.5 mph - 0.01 in Snow Light Snow
8:37 PM 26.1 °F 15.0 °F 24.1 °F 92% 30.27 in 1.5 mi WSW 12.7 mph - 0.02 in Snow Light Snow
8:44 PM 26.1 °F 15.6 °F 23.0 °F 88% 30.27 in 2.5 mi WSW 11.5 mph - 0.02 in Snow Light Snow
8:53 PM 25.0 °F 14.8 °F 24.1 °F 96% 30.40 in 4.0 mi WSW 10.4 mph - 0.02 in Snow Light Snow
9:12 PM 26.1 °F 16.2 °F 23.0 °F 88% 30.27 in 2.0 mi WSW 10.4 mph - 0.00 in Snow Light Snow
9:26 PM 25.0 °F 14.2 °F 23.0 °F 92% 30.27 in 3.0 mi WSW 11.5 mph - 0.01 in Snow Light Snow
9:53 PM 25.0 °F 13.1 °F 23.0 °F 92% 30.38 in 4.0 mi WSW 13.8 mph - 0.01 in Snow Light Snow
10:17 PM 25.0 °F 13.6 °F 23.0 °F 92% 30.26 in 6.0 mi WSW 12.7 mph - 0.00 in Snow Light Snow
10:53 PM 25.0 °F 11.7 °F 23.0 °F 92% 30.38 in 10.0 mi WSW 17.3 mph - 0.00 in Fog Overcast
11:53 PM 25.0 °F 11.3 °F 21.9 °F 88% 30.38 in 10.0 mi WSW 18.4 mph - N/A   Overcast